Weather History for Minot, ND

Change the Weather History Date:

Saturday, January 19, 2013

  Actual Average Record
Temperature  
Mean Temperature 17 °F 12 °F  
Max Temperature 37 °F 21 °F 49 °F (1942)
Min Temperature -4 °F 3 °F -34 °F (1996)
Degree Days  
Heating Degree Days 48 53  
Month to date heating degree days 904 1007  
Since 1 July heating degree days 4649 4602  
Moisture  
Dew Point 2 °F    
Average Humidity 73    
Maximum Humidity 82    
Minimum Humidity 64    
Precipitation  
Precipitation T in 0.01 in 0.22 in (1987)
Month to date precipitation 0.04 0.33  
Year to date precipitation 0.04 0.33  
Sea Level Pressure  
Sea Level Pressure 30.14 in    
Wind  
Wind Speed 23 mph (WNW)    
Max Wind Speed 41 mph    
Max Gust Speed 52 mph    
Visibility 6 miles    
Events Snow    
T = Trace of Precipitation, MM = Missing Value Source: NWS Daily Summary

Daily Weather History Graph

Daily Weather History Graph

Search for Another Location

Airport:

Trip Planner

Search our weather history database for the weather conditions in past years. The results will help you decide how hot, cold, wet, or windy it might be!

Date:

Astronomy

Jan. 19, 2013 Rise Set
Actual Time 8:27 AM CST 5:24 PM CST
Civil Twilight 7:52 AM CST 5:59 PM CST
Nautical Twilight 7:14 AM CST 6:38 PM CST
Astronomical Twilight 6:37 AM CST 7:15 PM CST
Moon 11:57 AM CST (1/19) 1:56 AM CST (1/19)
Length of Visible Light 10h 06m
Length of Day
8h 57m
First Quarter, 57% of the Moon is Illuminated
Jan 19
First Quarter
Jan 26
Full
Feb 3
Last Quarter
Feb 10
New
Feb 17
First Quarter

Hourly Weather History & Observations

Time (CST) Temp. Windchill Dew Point Humidity Pressure Visibility Wind Dir Wind Speed Gust Speed Precip Events Conditions
12:54 AM 36.0 °F 25.3 °F 27.0 °F 70% 29.72 in 10.0 mi West 19.6 mph - N/A   Scattered Clouds
1:54 AM 36.0 °F 24.7 °F 28.0 °F 73% 29.73 in 10.0 mi West 21.9 mph - N/A   Scattered Clouds
2:54 AM 37.0 °F 24.9 °F 28.9 °F 73% 29.76 in 10.0 mi West 27.6 mph 34.5 mph N/A   Mostly Cloudy
3:54 AM 36.0 °F 23.7 °F 30.0 °F 79% 29.78 in 10.0 mi West 26.5 mph 34.5 mph N/A   Overcast
4:54 AM 35.1 °F 20.2 °F 28.9 °F 78% 29.82 in 10.0 mi WNW 39.1 mph 48.3 mph N/A   Overcast
5:54 AM 27.0 °F 9.4 °F 21.9 °F 81% 29.89 in 10.0 mi WNW 36.8 mph 42.6 mph N/A   Overcast
6:17 AM 24.8 °F 7.1 °F 19.4 °F 80% 29.85 in 10.0 mi WNW 33.4 mph 39.1 mph N/A   Overcast
6:33 AM 23.0 °F 6.0 °F 17.6 °F 80% 29.87 in 10.0 mi WNW 27.6 mph 35.7 mph N/A   Overcast
6:54 AM 19.0 °F -1.1 °F 12.9 °F 77% 29.98 in 10.0 mi WNW 34.5 mph 42.6 mph N/A   Overcast
7:12 AM 15.8 °F -5.5 °F 10.4 °F 79% 29.92 in 7.0 mi WNW 34.5 mph 41.4 mph 0.00 in Snow Light Snow
7:44 AM 12.2 °F -9.6 °F 8.6 °F 85% 29.95 in 1.8 mi WNW 31.1 mph 36.8 mph 0.00 in Snow Light Snow
7:52 AM 12.2 °F -9.3 °F 6.8 °F 79% 29.95 in 3.0 mi NW 29.9 mph 38.0 mph 0.00 in Snow Light Snow
7:54 AM 12.2 °F -7.9 °F 6.8 °F 79% 29.95 in 4.0 mi WNW 25.3 mph 38.0 mph N/A Snow Light Snow
8:54 AM 8.1 °F -15.9 °F 1.9 °F 76% 30.13 in 4.0 mi WNW 33.4 mph 42.6 mph 0.00 in   Overcast
9:10 AM 6.8 °F -15.9 °F 1.4 °F 79% 30.06 in 2.0 mi WNW 27.6 mph 39.1 mph 0.00 in Snow Light Snow
9:21 AM 6.8 °F -16.6 °F 1.4 °F 79% 30.07 in 6.0 mi WNW 29.9 mph 36.8 mph 0.00 in   Haze
9:54 AM 7.0 °F -15.6 °F 1.0 °F 77% 30.19 in 4.0 mi WNW 27.6 mph 38.0 mph 0.00 in Snow Blowing Snow
10:04 AM 6.8 °F -17.3 °F -0.4 °F 72% 30.10 in 2.0 mi NW 32.2 mph 40.3 mph N/A Snow Blowing Snow
10:13 AM 6.8 °F -16.6 °F -0.4 °F 72% 30.11 in 1.2 mi NW 29.9 mph 39.1 mph N/A Snow Blowing Snow
10:24 AM 6.8 °F -16.6 °F -0.4 °F 72% 30.12 in 3.0 mi WNW 29.9 mph 40.3 mph N/A Snow Blowing Snow
10:40 AM 6.8 °F -16.2 °F 1.4 °F 79% 30.13 in 3.0 mi WNW 28.8 mph - N/A Snow Blowing Snow
10:54 AM 6.1 °F -16.8 °F -0.0 °F 76% 30.24 in 3.0 mi WNW 27.6 mph 34.5 mph 0.00 in Snow Blowing Snow
10:57 AM 6.8 °F -16.9 °F -0.4 °F 72% 30.15 in 1.5 mi WNW 31.1 mph 39.1 mph N/A Snow Blowing Snow
11:02 AM 6.8 °F -17.6 °F -0.4 °F 72% 30.15 in 0.8 mi WNW 33.4 mph 39.1 mph 0.00 in Snow Light Snow
11:49 AM 3.2 °F -22.5 °F -5.8 °F 66% 30.19 in 4.0 mi WNW 33.4 mph 41.4 mph 0.00 in Snow Blowing Snow
11:54 AM 3.0 °F -22.8 °F -5.1 °F 69% 30.29 in 4.0 mi WNW 33.4 mph 41.4 mph 0.00 in Snow Blowing Snow
12:18 PM 3.2 °F -21.5 °F -4.0 °F 72% 30.21 in 1.8 mi WNW 29.9 mph 39.1 mph N/A Snow Blowing Snow
12:25 PM 1.4 °F -24.3 °F -4.0 °F 78% 30.21 in 0.2 mi NW 31.1 mph 39.1 mph N/A Snow Blowing Snow
12:38 PM 1.4 °F -23.5 °F -5.8 °F 72% 30.22 in 1.0 mi NW 28.8 mph 38.0 mph N/A Snow Blowing Snow
12:54 PM 1.0 °F -24.4 °F -6.0 °F 72% 30.33 in 5.0 mi WNW 29.9 mph 38.0 mph N/A Snow Blowing Snow
1:01 PM 1.4 °F -22.7 °F -5.8 °F 72% 30.23 in 7.0 mi WNW 26.5 mph 33.4 mph N/A Snow Blowing Snow
1:17 PM 1.4 °F -23.2 °F -7.6 °F 66% 30.24 in 10.0 mi WNW 27.6 mph 36.8 mph N/A Snow Blowing Snow
1:54 PM -0.0 °F -25.1 °F -8.0 °F 69% 30.37 in 10.0 mi WNW 27.6 mph 33.4 mph N/A   Clear
2:54 PM -0.0 °F -23.3 °F -9.0 °F 66% 30.39 in 10.0 mi WNW 23.0 mph - N/A   Clear
3:54 PM -0.9 °F -23.5 °F -9.9 °F 66% 30.41 in 10.0 mi WNW 20.7 mph - N/A   Clear
4:54 PM -2.9 °F -23.1 °F -11.0 °F 68% 30.42 in 10.0 mi WNW 15.0 mph - N/A   Clear
5:54 PM -2.9 °F -20.8 °F -11.0 °F 68% 30.44 in 10.0 mi West 11.5 mph - N/A   Clear
6:54 PM -4.0 °F -17.8 °F -11.0 °F 72% 30.45 in 10.0 mi West 6.9 mph - N/A   Clear
7:54 PM -4.0 °F -22.1 °F -11.0 °F 72% 30.46 in 10.0 mi West 11.5 mph - N/A   Clear
8:54 PM -4.0 °F -23.7 °F -11.0 °F 72% 30.45 in 10.0 mi West 13.8 mph - N/A   Clear
9:54 PM -2.9 °F -19.8 °F -11.0 °F 68% 30.44 in 10.0 mi West 10.4 mph - N/A   Mostly Cloudy
10:54 PM -2.0 °F -18.7 °F -9.0 °F 72% 30.43 in 10.0 mi West 10.4 mph - N/A   Overcast
11:54 PM -0.9 °F -15.3 °F -9.0 °F 69% 30.42 in 10.0 mi West 8.1 mph - N/A   Overcast